Weather in Lapua

Finland     62°58′20″N   23°00′13″E
temp.,
°C
wind,
m/s
gust,
m/s
humid.,
%
clouds,
%
prec.,
mm/h
press.,
hPa
HPBL,
m
18 may, wed
wed1800:00+2wsw267234 0.0 1022112
03:00+2sw314727 0.0 1021348
06:00+3wsw3117285 0.0 1019363
09:00+9w365555 0.0 1018457
12:00+14nw45425 0.0 10171153
15:00+14nw46404 0.0 10171434
18:00+14nnw35405 0.0 10161508
21:00+11nne2259100 0.0 101637
19 may, thu
thu1900:00+8ene41062100 0.0 1017391
03:00+6e3970100 0.0 1019392
06:00+6ene3780100 0.3 1020305
09:00+8ene3653100 0.3 1021491
12:00+11ne233499 0.0 10211166
15:00+14ne223118 0.0 10211564
18:00+14nne22315 0.0 10201660
21:00+10nne2551100 0.0 1020132
20 may, fri
fri2000:00+5ene2663100 0.0 1020118
03:00+5ese226398 0.0 102023
06:00+6se1259100 0.0 102042
09:00+11ese114670 0.0 1020344
12:00+16ene11345 0.0 10201487
15:00+18nnw22325 0.0 10192022
18:00+17n223322 0.0 10192140
21:00+13nw365419 0.0 1019189
21 may, sat
sat2100:00+8nnw22726 0.0 101921
03:00+6wnw117310 0.0 101910
06:00+7wsw126712 0.0 101963
09:00+13w125351 0.0 1018476
12:00+17sw1143100 0.0 10171491
15:00+16wnw1151100 0.0 1016759
18:00+13nnw245799 0.1 1016343
21:00+11nnw2557100 0.1 1016150
22 may, sun
sun2200:00+8ene2566100 0.0 1015101
03:00+8s1181100 0.0 101533
06:00+8ssw1379100 0.0 1015120
09:00+11ssw3551100 0.0 1015455
12:00+14ssw3538100 0.0 10151208
15:00+15ssw3537100 0.0 10142003
18:00+15ssw3439100 0.0 10132101
21:00+12nw2457100 0.0 1013161